Lexington Weather

Lexington, Massachusetts, USA

70°F
8/17/2022 6:34pm 
  • Lexington Conditions: Overcast
  • Temperature: 69.8°F / 21.0°CColder 0.2°F than last hour.
  • Dew Point: 58.8°FIncreased 0.3°Fsince last hour.
  • Relative Humidity: 68%Increased 1.0% since last hour.
  • Wind: Calm, 10-min avg: Calm, gust: 3 mph
  • Barometer: 29.85 in Steady
  • Visibility: 10 miles
  • Rain Today: 0.00 in
  •   

Regional Weather Roundup
for Boston, MA

        
000
ASUS41 KBOX 130510
RWRBOX

REGIONAL WEATHER ROUNDUP
NATIONAL WEATHER SERVICE BOSTON/NORTON MA
100 AM EDT SAT AUG 13 2022

NOTE:  "FAIR" INDICATES FEW OR NO CLOUDS BELOW 12,000 FEET WITH NO 
SIGNIFICANT WEATHER AND/OR OBSTRUCTIONS TO VISIBILITY.

MAZALL-130600-
EASTERN MASSACHUSETTS
  
CITY           SKY/WX    TMP DP  RH WIND       PRES   REMARKS
BOSTON         CLOUDY    67  50  54 N9        30.06R                  
BEVERLY        CLOUDY    62  51  67 N6        30.05S                  
LAWRENCE       CLOUDY    64  50  60 N6        30.08S                  
BEDFORD        CLOUDY    63  51  65 N6        30.06R                  
BLUE HILL      NOT AVBL                                               
NORWOOD        CLOUDY    67  50  54 N3        30.05S                  
MARSHFIELD     CLOUDY    66  54  63 VRB5      30.04S                  
PLYMOUTH       CLOUDY    66  54  65 N7        30.05R                  
TAUNTON          N/A    N/A N/A N/A MISG      30.04S                  
NEW BEDFORD    CLOUDY    67  55  65 N5        30.03S                  
$$

MAZALL-130600-
CAPE COD AND THE ISLANDS
  
CITY           SKY/WX    TMP DP  RH WIND       PRES   REMARKS
FALMOUTH       CLEAR     66  55  68 N6        30.04R                  
HYANNIS        CLOUDY    67  61  81 N7        30.01F                  
CHATHAM        CLOUDY    67  63  87 VRB3      30.03R                  
NANTUCKET      CLOUDY    71  66  84 N8        30.01F                  
MARTHAS VNYRD  CLOUDY    68  57  68 N6        30.03S                  
$$
 
MAZALL-130600-
CENTRAL AND WESTERN MASSACHUSETTS
  
CITY           SKY/WX    TMP DP  RH WIND       PRES   REMARKS
WORCESTER      CLOUDY    62  48  60 N7        30.08S                  
FITCHBURG      CLOUDY    62  48  60 N7        30.08S                  
ORANGE         PTCLDY    54  50  86 CALM      30.11R                  
SPRINGFIELD    CLEAR     56  51  84 N3        30.06R                  
WESTFIELD      PTCLDY    59  49  69 NW5       30.08R                  
NORTH ADAMS    CLEAR     53  51  93 CALM      30.10S                  
PITTSFIELD     CLEAR     53  48  83 SE3       30.09S                  
$$
 
RIZALL-130600-
RHODE ISLAND
  
CITY           SKY/WX    TMP DP  RH WIND       PRES   REMARKS
PROVIDENCE     CLOUDY    69  53  56 NE9       30.06R                  
NEWPORT        CLOUDY    67  56  67 N7        30.04R                  
BLOCK ISLAND   RAIN      62  59  90 NE10G16   30.06R FOG              
SMITHFIELD     CLOUDY    64  50  60 N5        30.07S                  
WESTERLY       CLOUDY    65  57  75 CALM      30.05R                  
$$
 
CTZALL-130600-
CONNECTICUT
  
CITY           SKY/WX    TMP DP  RH WIND       PRES   REMARKS
BRADLEY INTL   PTCLDY    62  49  62 N7        30.08R                  
HARTFORD       CLEAR     67  49  52 N6        30.07R                  
BRIDGEPORT     CLEAR     67  46  47 NW7       30.06R                  
DANBURY        CLEAR     64  46  52 CALM      30.09R                  
GROTON         CLOUDY    71  52  50 N7        30.04R                  
NEW HAVEN      CLEAR     68  49  50 N5        30.06R                  
CHESTER        FAIR      63  48  59 N3        30.06R                  
MERIDEN        CLEAR     60  51  72 CALM      30.06R                  
WILLIMANTIC    MOCLDY    62  52  69 CALM      30.07F                  
OXFORD         CLEAR     61  47  59 N12       30.09R                  
$$

MEZ002-015-021-024-NHZ003-005-008-011-012-014-VTZ005-008-130600-
NORTHERN NEW ENGLAND
  
CITY           SKY/WX    TMP DP  RH WIND       PRES   REMARKS
PORTLAND ME    MOCLDY    61  51  70 N6        30.06S                  
BANGOR ME      MOCLDY    59  53  80 CALM      30.05S                  
CONCORD NH     CLOUDY    57  51  80 CALM      30.08S                  
MANCHESTER NH  CLOUDY    64  50  60 NW8       30.06S                  
NASHUA NH      CLOUDY    63  53  70 NW7       30.07F                  
PORTSMOUTH NH  MOCLDY    64  48  57 N8        30.05S                  
JAFFREY NH     PTCLDY    53  50  89 CALM      30.11R                  
KEENE NH       CLEAR     53  52  96 S3          N/A                   
BURLINGTON VT  PTCLDY    61  55  81 CALM      30.11S                  
MT. WASHINGTON FOG       37  37 100 N20         N/A  VSB 1/16WCI  27  
$$

NYZ052-076-130600-
EASTERN NEW YORK
  
CITY           SKY/WX    TMP DP  RH WIND       PRES   REMARKS
ALBANY         PTCLDY    61  49  64 NW5       30.10S                  
NEW YORK CITY  PTCLDY    72  45  37 N12       30.06R                  
$$
 
ANZALL-130600-
MARINE OBSERVATIONS
  
STATION/POSITION TIME  TEMP    WIND        PRES    VSBY  WAVE
                       AIR SEA DIR/SP/G                  HT/PER
                 (UTC) (F)     (DEG/KT/KT) (MB)    (MI)  (FT/S)
BOSTON BUOY      NOT AVBL
BUZZARDS BAY     NOT AVBL
NANTUCKET SOUND  NOT AVBL
MASS BAY-STELLWA NOT AVBL
ISLE OF SHOALS   NOT AVBL
S OF BLOCK IS    NOT AVBL
$$

......................KEY.........................
  SKY/WX - SKY CONDITION/PRESENT WEATHER
  TMP    - TEMPERATURE IN FAHRENHEIT
  DWPT   - DEWPOINT IN FAHRENHEIT
  RH     - RELATIVE HUMIDITY IN PERCENT
  WIND   - DIRECTION AND SPEED IN MPH
  PRES   - MEAN SEA LEVEL PRESSURE IN INCHES OF HG
  WCI    - WIND CHILL INDEX
  VSB    - VISIBILITY IN MILES
  HX     - HEAT INDEX
  TC     - TEMPERATURE IN CELSIUS
  VRB    - VARIABLE WIND DIRECTION
  N/A    - NOT AVAILABLE
  
      

Other recent Regional Weather Roundups

Wed Aug 17, 6:10pm

Wed Aug 17, 5:10pm

Wed Aug 17, 4:10pm

Wed Aug 17, 3:10pm

Wed Aug 17, 2:10pm

Wed Aug 17, 1:10pm

Wed Aug 17, 12:10pm

Wed Aug 17, 11:10am

Wed Aug 17, 10:10am

Wed Aug 17, 9:10am

Wed Aug 17, 8:10am

Wed Aug 17, 7:10am

Wed Aug 17, 6:10am

Wed Aug 17, 5:10am

Wed Aug 17, 4:10am

Wed Aug 17, 3:10am

Wed Aug 17, 2:10am

Wed Aug 17, 1:10am

Wed Aug 17, 12:10am

Tue Aug 16, 11:10pm

Tue Aug 16, 10:10pm

Tue Aug 16, 9:10pm

Tue Aug 16, 8:10pm

Tue Aug 16, 7:10pm

Tue Aug 16, 6:10pm

Tue Aug 16, 5:10pm

Tue Aug 16, 4:10pm

Tue Aug 16, 3:10pm

Tue Aug 16, 2:10pm

Tue Aug 16, 1:10pm

Tue Aug 16, 12:10pm

Tue Aug 16, 11:10am

Tue Aug 16, 10:10am

Tue Aug 16, 9:10am

Tue Aug 16, 8:10am

Tue Aug 16, 7:10am

Tue Aug 16, 6:10am

Tue Aug 16, 5:10am

Tue Aug 16, 4:10am

Tue Aug 16, 3:10am

Tue Aug 16, 2:10am

Tue Aug 16, 1:10am

Tue Aug 16, 12:10am

Mon Aug 15, 11:10pm

Mon Aug 15, 10:10pm

Mon Aug 15, 9:10pm

Mon Aug 15, 8:10pm

Mon Aug 15, 7:10pm

Mon Aug 15, 6:10pm

Mon Aug 15, 5:10pm

Mon Aug 15, 4:10pm

Mon Aug 15, 3:10pm

Mon Aug 15, 2:10pm

Mon Aug 15, 1:10pm

Mon Aug 15, 12:10pm

Mon Aug 15, 11:10am

Mon Aug 15, 10:10am

Mon Aug 15, 9:10am

Mon Aug 15, 8:10am

Mon Aug 15, 7:10am

Mon Aug 15, 6:10am

Mon Aug 15, 5:10am

Mon Aug 15, 4:10am

Mon Aug 15, 3:10am

Mon Aug 15, 2:10am

Mon Aug 15, 1:10am

Mon Aug 15, 12:10am

Sun Aug 14, 11:10pm

Sun Aug 14, 10:10pm

Sun Aug 14, 9:10pm

Sun Aug 14, 8:10pm

Sun Aug 14, 7:10pm

Sun Aug 14, 6:10pm

Sun Aug 14, 5:10pm

Sun Aug 14, 4:10pm

Sun Aug 14, 3:10pm

Sun Aug 14, 2:10pm

Sun Aug 14, 1:10pm

Sun Aug 14, 12:10pm

Sun Aug 14, 11:10am

Sun Aug 14, 10:10am

Sun Aug 14, 9:10am

Sun Aug 14, 8:10am

Sun Aug 14, 7:10am

Sun Aug 14, 6:10am

Sun Aug 14, 5:10am

Sun Aug 14, 4:10am

Sun Aug 14, 3:10am

Sun Aug 14, 2:10am

Sun Aug 14, 1:10am

Sun Aug 14, 12:10am

Sat Aug 13, 11:10pm

Sat Aug 13, 10:10pm

Sat Aug 13, 9:10pm

Sat Aug 13, 8:10pm

Sat Aug 13, 7:10pm

Sat Aug 13, 6:10pm

Sat Aug 13, 5:10pm

Sat Aug 13, 4:10pm

Sat Aug 13, 3:10pm

Sat Aug 13, 2:10pm

Sat Aug 13, 1:10pm

Sat Aug 13, 12:10pm

Sat Aug 13, 11:10am

Sat Aug 13, 10:10am

Sat Aug 13, 9:10am

Sat Aug 13, 8:10am

Sat Aug 13, 7:10am

Sat Aug 13, 6:10am

Sat Aug 13, 5:10am

Sat Aug 13, 4:10am

Sat Aug 13, 3:10am

Sat Aug 13, 2:10am

Sat Aug 13, 12:10am

Fri Aug 12, 11:10pm

Fri Aug 12, 10:10pm

Fri Aug 12, 9:10pm

Fri Aug 12, 8:10pm

Fri Aug 12, 7:10pm

Fri Aug 12, 6:10pm

Fri Aug 12, 5:10pm

Fri Aug 12, 4:10pm

Fri Aug 12, 3:10pm

Fri Aug 12, 2:10pm

Fri Aug 12, 1:10pm

Fri Aug 12, 12:10pm

Fri Aug 12, 11:10am

Fri Aug 12, 10:10am

Fri Aug 12, 9:10am

Fri Aug 12, 8:10am

Fri Aug 12, 7:10am

Fri Aug 12, 6:10am

Fri Aug 12, 5:10am

Fri Aug 12, 4:10am

Fri Aug 12, 3:10am

Fri Aug 12, 2:10am

Fri Aug 12, 1:10am

Fri Aug 12, 12:10am

Thu Aug 11, 11:10pm

Thu Aug 11, 10:10pm

Thu Aug 11, 9:10pm

Thu Aug 11, 8:10pm

Thu Aug 11, 7:10pm

Thu Aug 11, 6:10pm

Thu Aug 11, 5:10pm

Thu Aug 11, 4:10pm

Thu Aug 11, 3:10pm

Thu Aug 11, 2:10pm

Thu Aug 11, 1:10pm

Thu Aug 11, 12:10pm

Thu Aug 11, 11:10am

Thu Aug 11, 10:10am

Thu Aug 11, 9:10am

Thu Aug 11, 8:10am

Thu Aug 11, 7:10am

Thu Aug 11, 6:10am

Thu Aug 11, 5:10am

Thu Aug 11, 4:10am

Thu Aug 11, 3:10am

Thu Aug 11, 2:10am

Thu Aug 11, 1:10am

Thu Aug 11, 12:10am

Wed Aug 10, 11:10pm

Wed Aug 10, 10:10pm

Wed Aug 10, 9:10pm

Wed Aug 10, 8:10pm

Wed Aug 10, 7:10pm

Meta data:

ID: 7ed444ba-f331-41a7-a647-1a6ac7d1ac24
Link: https://api.weather.gov/products/7ed444ba-f331-41a7-a647-1a6ac7d1ac24